EN

Hourly Weather Alipino

Today, 19 January, Tuesday

Time Temperature Precipitation Wind Pressure Humidity
00:00 -12°C° 0 mm 1 mps 753 mmHg 96%
01:00 -12°C° 0 mm 1 mps 753 mmHg 96%
02:00 -12°C° 0 mm 1 mps 753 mmHg 96%
03:00 -12°C° 0 mm 1 mps 753 mmHg 96%
04:00 -13°C° 0 mm 1 mps 753 mmHg 96%
05:00 -13°C° 0 mm 1 mps 752 mmHg 96%
06:00 -13°C° 0 mm 1 mps 752 mmHg 96%
07:00 -13°C° 0 mm 1 mps 752 mmHg 95%
08:00 -13°C° 0 mm 1 mps 753 mmHg 95%
09:00 -13°C° 0 mm 1 mps 753 mmHg 93%
10:00 -14°C° 0 mm 2 mps 753 mmHg 90%
11:00 -13°C° 0 mm 2 mps 753 mmHg 88%
12:00 -13°C° 0 mm 2 mps 752 mmHg 88%
13:00 -12°C° 0 mm 2 mps 752 mmHg 87%
14:00 -12°C° 0 mm 2 mps 752 mmHg 87%
15:00 -12°C° 0 mm 2 mps 752 mmHg 89%
16:00 -13°C° 0 mm 2 mps 752 mmHg 91%
17:00 -14°C° 0 mm 2 mps 752 mmHg 93%
18:00 -15°C° 0 mm 2 mps 752 mmHg 93%
19:00 -15°C° 0 mm 2 mps 752 mmHg 93%
20:00 -15°C° 0 mm 2 mps 752 mmHg 93%
21:00 -15°C° 0 mm 2 mps 752 mmHg 93%
22:00 -15°C° 0 mm 2 mps 752 mmHg 93%
23:00 -16°C° 0 mm 2 mps 752 mmHg 93%

Tomorrow, 20 January, Wednesday

Time Temperature Precipitation Wind Pressure Humidity
00:00 -16°C° 0 mm 2 mps 752 mmHg 93%
01:00 -16°C° 0 mm 2 mps 752 mmHg 93%
02:00 -16°C° 0 mm 2 mps 752 mmHg 93%
03:00 -16°C° 0 mm 2 mps 752 mmHg 93%
04:00 -16°C° 0 mm 2 mps 752 mmHg 93%
05:00 -16°C° 0 mm 2 mps 752 mmHg 93%
06:00 -16°C° 0 mm 2 mps 752 mmHg 92%
07:00 -16°C° 0 mm 2 mps 751 mmHg 92%
08:00 -17°C° 0 mm 3 mps 751 mmHg 92%
09:00 -16°C° 0 mm 3 mps 751 mmHg 89%
10:00 -15°C° 0 mm 3 mps 751 mmHg 86%
11:00 -15°C° 0 mm 4 mps 751 mmHg 84%
12:00 -15°C° 0 mm 4 mps 751 mmHg 82%
13:00 -14°C° 0 mm 4 mps 750 mmHg 80%
14:00 -12°C° 0 mm 4 mps 750 mmHg 78%
15:00 -12°C° 0 mm 4 mps 749 mmHg 78%
16:00 -12°C° 0 mm 4 mps 749 mmHg 78%
17:00 -14°C° 0 mm 4 mps 748 mmHg 78%
18:00 -13°C° 0.1 mm 5 mps 748 mmHg 82%
19:00 -13°C° 0.1 mm 5 mps 747 mmHg 87%
20:00 -13°C° 0.1 mm 5 mps 747 mmHg 91%
21:00 -13°C° 0.4 mm 5 mps 746 mmHg 91%
22:00 -12°C° 0.4 mm 5 mps 746 mmHg 92%
23:00 -12°C° 0.4 mm 5 mps 745 mmHg 92%

Day after tomorrow, 21 January, Thursday

Time Temperature Precipitation Wind Pressure Humidity
00:00 -11°C° 0.4 mm 5 mps 745 mmHg 92%
01:00 -11°C° 0.4 mm 5 mps 744 mmHg 92%
02:00 -10°C° 0.4 mm 5 mps 744 mmHg 92%
03:00 -10°C° 0.3 mm 5 mps 743 mmHg 92%
04:00 -8°C° 0.3 mm 5 mps 743 mmHg 92%
05:00 -7°C° 0.3 mm 5 mps 742 mmHg 92%
06:00 -7°C° 0.1 mm 5 mps 742 mmHg 92%
07:00 -6°C° 0.1 mm 5 mps 742 mmHg 92%
08:00 -5°C° 0.1 mm 5 mps 742 mmHg 92%
09:00 -4°C° 0.1 mm 5 mps 742 mmHg 93%
10:00 -2°C° 0.1 mm 5 mps 742 mmHg 94%
11:00 -1°C° 0.1 mm 5 mps 741 mmHg 95%
12:00 -1°C° 0.1 mm 5 mps 741 mmHg 95%
13:00 -1°C° 0.1 mm 5 mps 741 mmHg 95%
14:00 0°C° 0.1 mm 5 mps 741 mmHg 96%
15:00 -1°C° 0 mm 5 mps 741 mmHg 95%
16:00 -1°C° 0 mm 4 mps 741 mmHg 94%
17:00 -1°C° 0 mm 4 mps 741 mmHg 94%
18:00 -1°C° 0 mm 4 mps 741 mmHg 93%
19:00 -1°C° 0 mm 4 mps 741 mmHg 92%
20:00 -1°C° 0 mm 4 mps 742 mmHg 91%
21:00 -2°C° 0 mm 4 mps 742 mmHg 91%
22:00 -2°C° 0 mm 4 mps 742 mmHg 91%
23:00 -2°C° 0 mm 4 mps 742 mmHg 91%

22 January, Friday

Time Temperature Precipitation Wind Pressure Humidity
00:00 -3°C° 0 mm 4 mps 742 mmHg 92%
01:00 -3°C° 0 mm 4 mps 742 mmHg 92%
02:00 -2°C° 0 mm 3 mps 742 mmHg 93%
03:00 -2°C° 0 mm 3 mps 742 mmHg 94%
04:00 -2°C° 0 mm 3 mps 742 mmHg 95%
05:00 -3°C° 0 mm 4 mps 741 mmHg 96%
06:00 -2°C° 0 mm 4 mps 741 mmHg 95%
07:00 -2°C° 0 mm 4 mps 741 mmHg 95%
08:00 -1°C° 0 mm 4 mps 741 mmHg 95%
09:00 -1°C° 0 mm 4 mps 741 mmHg 94%
10:00 0°C° 0 mm 3 mps 741 mmHg 94%
11:00 0°C° 0 mm 3 mps 741 mmHg 94%
12:00 0°C° 0 mm 3 mps 741 mmHg 95%
13:00 0°C° 0 mm 3 mps 741 mmHg 95%
14:00 0°C° 0 mm 3 mps 740 mmHg 96%
15:00 0°C° 0 mm 3 mps 740 mmHg 96%
16:00 0°C° 0 mm 3 mps 740 mmHg 96%
17:00 0°C° 0 mm 3 mps 740 mmHg 96%
18:00 0°C° 0 mm 3 mps 740 mmHg 95%
19:00 0°C° 0 mm 3 mps 740 mmHg 95%
20:00 -1°C° 0 mm 3 mps 740 mmHg 94%
21:00 -1°C° 0 mm 4 mps 740 mmHg 95%
22:00 -1°C° 0 mm 4 mps 740 mmHg 95%
23:00 -1°C° 0 mm 4 mps 740 mmHg 95%

23 January, Saturday

Time Temperature Precipitation Wind Pressure Humidity
00:00 0°C° 0 mm 3 mps 740 mmHg 95%
01:00 0°C° 0 mm 3 mps 740 mmHg 95%
02:00 +1°C° 0 mm 3 mps 740 mmHg 96%
03:00 +1°C° 0 mm 3 mps 739 mmHg 96%
04:00 +1°C° 0 mm 3 mps 739 mmHg 96%
05:00 +1°C° 0 mm 3 mps 739 mmHg 97%
06:00 +1°C° 0.2 mm 3 mps 739 mmHg 97%
07:00 +1°C° 0.2 mm 3 mps 739 mmHg 97%
08:00 +2°C° 0.2 mm 2 mps 739 mmHg 98%
09:00 +2°C° 0.1 mm 2 mps 740 mmHg 98%
10:00 +2°C° 0.1 mm 2 mps 740 mmHg 98%
11:00 +2°C° 0.1 mm 2 mps 741 mmHg 98%
12:00 +2°C° 0.1 mm 2 mps 741 mmHg 98%
13:00 +1°C° 0.1 mm 2 mps 741 mmHg 98%
14:00 +1°C° 0.1 mm 2 mps 741 mmHg 99%
15:00 +2°C° 0.2 mm 1 mps 741 mmHg 99%
16:00 +2°C° 0.2 mm 1 mps 741 mmHg 99%
17:00 +1°C° 0.2 mm 0 mps 741 mmHg 99%
18:00 +2°C° 0.7 mm 1 mps 740 mmHg 99%
19:00 +2°C° 0.7 mm 1 mps 740 mmHg 99%
20:00 +2°C° 0.7 mm 1 mps 740 mmHg 98%
21:00 +2°C° 0.9 mm 1 mps 740 mmHg 99%
22:00 +2°C° 0.9 mm 1 mps 739 mmHg 99%
23:00 +2°C° 0.9 mm 1 mps 739 mmHg 99%

24 January, Sunday

Time Temperature Precipitation Wind Pressure Humidity
00:00 +2°C° 0.6 mm 1 mps 739 mmHg 99%
01:00 -1°C° 0.6 mm 2 mps 739 mmHg 98%
02:00 -1°C° 0.6 mm 2 mps 739 mmHg 98%
03:00 -1°C° 0.4 mm 2 mps 740 mmHg 98%
04:00 -1°C° 0.4 mm 3 mps 740 mmHg 98%
05:00 -1°C° 0.4 mm 3 mps 740 mmHg 97%
06:00 -1°C° 0.1 mm 3 mps 740 mmHg 97%
07:00 -2°C° 0.1 mm 2 mps 741 mmHg 97%
08:00 -2°C° 0.1 mm 2 mps 741 mmHg 97%
09:00 0°C° 0 mm 1 mps 741 mmHg 96%
10:00 0°C° 0 mm 1 mps 742 mmHg 95%
11:00 0°C° 0 mm 1 mps 742 mmHg 95%
12:00 0°C° 0 mm 1 mps 743 mmHg 95%
13:00 -1°C° 0 mm 0 mps 743 mmHg 95%
14:00 0°C° 0 mm 0 mps 743 mmHg 95%
15:00 -1°C° 0 mm 0 mps 743 mmHg 95%
16:00 0°C° 0 mm 1 mps 743 mmHg 96%
17:00 0°C° 0 mm 1 mps 743 mmHg 96%
18:00 0°C° 0 mm 1 mps 743 mmHg 96%
19:00 -2°C° 0 mm 2 mps 742 mmHg 96%
20:00 -2°C° 0 mm 2 mps 742 mmHg 95%
21:00 -2°C° 0.1 mm 2 mps 742 mmHg 95%
22:00 -2°C° 0.1 mm 2 mps 741 mmHg 95%
23:00 -2°C° 0.1 mm 2 mps 741 mmHg 95%
Show more